Regional Weather Roundup
Issued by NWS

Home | Current Version | Previous Version | Graphics & Text | Print | Product List | Glossary On
Versions: 1 2 3 4 5 6 7 8 9 10 11 12 13 14 15 16 17 18 19 20 21 22 23 24 25 26 27 28 29 30 31 32 33 34 35 36 37 38 39 40 41 42 43 44 45 46 47 48 49 50
525
ASUS43 KTOP 231908
RWRKS

WEATHER ROUNDUP FOR KANSAS
NATIONAL WEATHER SERVICE GOODLAND KS
100 PM CST THU FEB 23 2017

NOTE:  "FAIR" INDICATES FEW OR NO CLOUDS BELOW 12,000 FEET WITH NO
SIGNIFICANT WEATHER AND/OR OBSTRUCTIONS TO VISIBILITY.

KSZ001>006-013>018-027>032-041>047-232000-
NORTHWEST KANSAS

CITY           SKY/WX    TMP DP  RH WIND       PRES   REMARKS
GOODLAND       CLOUDY    32  32 100 NE17      29.51F WCI  21
HAYS           MOSUNNY   56  38  50 E20       29.45F
HILL CITY      CLOUDY    41  34  76 NE18G24   29.52F
RUSSELL        PTSUNNY   56  39  53 NE16      29.44F
$$

KSZ061>065-074>080-084>089-232000-
SOUTHWEST KANSAS

CITY           SKY/WX    TMP DP  RH WIND       PRES   REMARKS
DODGE CITY     SUNNY     71  36  27 S15G23    29.38F
ELKHART          N/A     70  25  18 SW28        N/A
GARDEN CITY    SUNNY     75  29  18 SW20G26   29.33F
GREAT BEND     SUNNY     61  41  47 E10       29.43F
LIBERAL        SUNNY     75  27  16 SW33G41   29.38F
PRATT          SUNNY     62  40  45 S10       29.40F
$$

KSZ066>073-081>083-090>101-232000-
SOUTHEAST KANSAS

CITY           SKY/WX    TMP DP  RH WIND       PRES   REMARKS
CHANUTE        CLOUDY    72  51  47 S12       29.46F
COFFEYVILLE    SUNNY     76  51  41 S15       29.44F
HUTCHINSON     SUNNY     65  46  50 SE15      29.41F
MEDICINE LODGE   N/A     66  45  46 SE7       29.39F
NEWTON         MOSUNNY   64  51  62 SE12      29.43F
PARSONS        MOSUNNY   74  50  42 S13G20    29.46F
WICHITA INTL   PTSUNNY   66  50  56 SE9       29.43F
WICHITA JABRA  MOSUNNY   66  52  60 SE10      29.43F
WICHITA MCCONL MOSUNNY   67  49  51 S12       29.43F
WINFIELD       SUNNY     72  48  42 SE9       29.43F
$$

KSZ007>012-019>026-033>040-048>060-102>105-232000-
NORTHEAST KANSAS

CITY           SKY/WX    TMP DP  RH WIND       PRES   REMARKS
CONCORDIA      PTSUNNY   49  37  63 NE20G26   29.50F
EMPORIA        PTSUNNY   65  49  56 SE14G23   29.44F
LAWRENCE       CLOUDY    55  45  68 E16       29.50F
MANHATTAN      CLOUDY    58  42  55 E15       29.47F
MARYSVILLE     CLOUDY    46  37  71 NE13      29.54F
OLATHE IND     CLOUDY    55  45  68 E13       29.51F
OLATHE EXE     PTSUNNY   53  45  74 E14       29.50F
SALINA         MOSUNNY   64  44  48 NE8       29.46F
TOPEKA BILLARD MOSUNNY   60  46  59 E13       29.48F
TOPEKA FORBES  CLOUDY    61  45  55 E20       29.47F
$$




USA.gov is the U.S. government's official web portal to all federal, state and local government web resources and services.